21:41
Airports
History
Links
Donate
Help keep this website running!
PayPal
Bitcoin
This page is community maintained. The information is intended for PC simulator navigation or reference.
Always use approved charts for navigation.
Y16
Dale DelightUpdated 28-Jul-2013
Dale Delight (Y16)
Postville, Iowa, United States (52162)
4
Lat/Lng:43° 4' 43.92" N / 91° 36' 54.53" W
43.078867 / -91.615147
Elevation:1200'ft / 366mMSL
Declination:E002°
ID / ICAO:Y16
FAA:Y16
Runways:1
Longest:11-29
Grass 708m / 2,323ft
(Edited 2013-07-28) [ Sign in to Edit ]
Nearby Weather21:35 GMT 2018-01-17
Nearby weather at KDEH, Decorah Muni located 15.0 nautical miles from Y16
Altimeter: 30.24
Visibility: 10.0 statute miles
Wind: 9 knots (from 230°)
Temp: -5°c / 23°f
Humidity: 57.8%

METAR: KDEH 172135Z AUTO 23009G18KT 200V270 10SM CLR M05/M12 A3024 RMK AO2

(Powered by phpweather)
Nearby VORs <50NM
Nearby NDBs
Runway 11 / 29
Dimensions:708.1 x 21.3m 2323' x 70'ft
Surface:Grass
Runway 11 [A]Runway 29 [B]
Heading:109°MH  111°TH289°MH   291°TH
Lat:
Lng:
43° 4' 48.22"N
91° 37' 9.1"W
43° 4' 39.63"N
91° 36' 39.97"W
User Notes and Comments
43° 4' 43.92" N / 91° 36' 54.53" W
Distance To
Airport ID:
Nearby Airports
(U) George L Scott Muni 11.0 NM
3Y2 SW 233°
4 Monona Muni 13.9 NM
7C3 ESE 103°
(U) Decorah Muni 15.0 NM
KDEH ( WX ) NNW 335°
(U) Waukon Muni 15.7 NM
Y01 NNE 27°
4 Elkader 19.9 NM
I27 SE 143°
4 Hawk Field 21.0 NM
IA15 SW 229°
(R) Jirak 22.6 NM
IA49 W 281°
VFR Chart
Flight Planning at SkyVector.com